Satellite: CAPE1
Catalog number: 31130
Epoch time: 09001.45089885
Element set: 492
Inclination: 098.0169 deg
RA of node: 062.2485 deg
Eccentricity: 0.0104049
Arg of perigee: 081.7312 deg
Mean anomaly: 279.5669 deg
Mean motion: 14.52022101 rev/day
Decay rate: 1.09e-06 rev/day^2
Epoch rev: 9049
Checksum: 284
Satellite: COMPASS
Catalog number: 32787
Epoch time: 09001.21751844
Element set: 241
Inclination: 097.9665 deg
RA of node: 066.2755 deg
Eccentricity: 0.0015226
Arg of perigee: 211.4335 deg
Mean anomaly: 148.5970 deg
Mean motion: 14.81525312 rev/day
Decay rate: 4.15e-06 rev/day^2
Epoch rev: 3672
Checksum: 287
Satellite: AAUSAT2
Catalog number: 32788
Epoch time: 09001.46908595
Element set: 242
Inclination: 097.9666 deg
RA of node: 066.5581 deg
Eccentricity: 0.0014848
Arg of perigee: 211.3058 deg
Mean anomaly: 148.7274 deg
Mean motion: 14.81641011 rev/day
Decay rate: 3.34e-06 rev/day^2
Epoch rev: 3676
Checksum: 314
Satellite: DO-64
Catalog number: 32789
Epoch time: 09001.82388933
Element set: 254
Inclination: 097.9702 deg
RA of node: 066.9837 deg
Eccentricity: 0.0015324
Arg of perigee: 208.5927 deg
Mean anomaly: 151.4441 deg
Mean motion: 14.81576626 rev/day
Decay rate: 4.15e-06 rev/day^2
Epoch rev: 3681
Checksum: 329
Satellite: CO-66
Catalog number: 32791
Epoch time: 09001.37702890
Element set: 235
Inclination: 097.9691 deg
RA of node: 066.4610 deg
Eccentricity: 0.0015467
Arg of perigee: 208.9617 deg
Mean anomaly: 151.0742 deg
Mean motion: 14.81367676 rev/day
Decay rate: 1.23e-06 rev/day^2
Epoch rev: 3671
Checksum: 312
Satellite: RS-30
Catalog number: 32953
Epoch time: 09001.49553471
Element set: 197
Inclination: 082.5010 deg
RA of node: 000.2664 deg
Eccentricity: 0.0018979
Arg of perigee: 178.4187 deg
Mean anomaly: 181.6977 deg
Mean motion: 12.42999297 rev/day
Decay rate: 1.0e-07 rev/day^2
Epoch rev: 2768
Checksum: 322
/EX
1
0